Back to catalog

COSMOS 252 DEB

AliveLEO
NORAD 3898·DEBRIS·🇷🇺 Russia

Launched Nov 1, 1968 from Baikonur Cosmodrome

Loading…

Next Passes (next 24 hours)

TLE

FreshSource: Space-Track

Epoch: Sep 14, 2026, 06:21 UTC

1 03898U 68097BK  26257.26496963  .00001459  00000-0  15786-2 0  9993
2 03898  62.2628 149.6655 0762297  97.4890 271.3291 12.90275616684745

Track COSMOS 252 DEB in real time with AllMySat

Download on the App Store